<?xml version="1.0" encoding="UTF-8" standalone="no" ?>
<gpx xmlns="http://www.topografix.com/GPX/1/1" xmlns:xsi="http://www.w3.org/2001/XMLSchema-instance" xsi:schemaLocation="http://www.topografix.com/GPX/1/1 http://www.topografix.com/GPX/1/1/gpx.xsd" version="1.1" creator="VisuGPX - https://www.visugpx.com">
  <metadata>
    <name>Montpeyroux st remy sur durolle</name>
    <desc><![CDATA[Rando au depart de montpeyroux 47 kms 1300 m deniv]]></desc>
  </metadata>
  <trk>
    <name><![CDATA[track]]></name>
    <trkseg>
      <trkpt lat="45.93977" lon="3.51755">
        <ele>305</ele>
        <time>2010-09-19T14:12:42Z</time>
      </trkpt>
      <trkpt lat="45.93986" lon="3.51745">
        <ele>307</ele>
        <time>2010-09-19T14:12:42Z</time>
      </trkpt>
      <trkpt lat="45.93991" lon="3.51779">
        <ele>307</ele>
        <time>2010-09-19T14:12:42Z</time>
      </trkpt>
      <trkpt lat="45.94026" lon="3.51804">
        <ele>307</ele>
        <time>2010-09-19T14:12:42Z</time>
      </trkpt>
      <trkpt lat="45.93971" lon="3.52007">
        <ele>317</ele>
        <time>2010-09-19T14:12:42Z</time>
      </trkpt>
      <trkpt lat="45.93907" lon="3.52392">
        <ele>329</ele>
        <time>2010-09-19T14:12:42Z</time>
      </trkpt>
      <trkpt lat="45.93757" lon="3.52563">
        <ele>353</ele>
        <time>2010-09-19T14:12:42Z</time>
      </trkpt>
      <trkpt lat="45.93623" lon="3.52643">
        <ele>368</ele>
        <time>2010-09-19T14:12:42Z</time>
      </trkpt>
      <trkpt lat="45.93584" lon="3.52648">
        <ele>371</ele>
        <time>2010-09-19T14:12:42Z</time>
      </trkpt>
      <trkpt lat="45.93567" lon="3.52625">
        <ele>374</ele>
        <time>2010-09-19T14:12:42Z</time>
      </trkpt>
      <trkpt lat="45.93531" lon="3.52634">
        <ele>377</ele>
        <time>2010-09-19T14:12:42Z</time>
      </trkpt>
      <trkpt lat="45.93406" lon="3.52679">
        <ele>389</ele>
        <time>2010-09-19T14:12:42Z</time>
      </trkpt>
      <trkpt lat="45.93342" lon="3.52734">
        <ele>393</ele>
        <time>2010-09-19T14:12:42Z</time>
      </trkpt>
      <trkpt lat="45.93295" lon="3.52735">
        <ele>396</ele>
        <time>2010-09-19T14:12:42Z</time>
      </trkpt>
      <trkpt lat="45.93208" lon="3.52771">
        <ele>396</ele>
        <time>2010-09-19T14:12:42Z</time>
      </trkpt>
      <trkpt lat="45.93056" lon="3.52926">
        <ele>405</ele>
        <time>2010-09-19T14:12:42Z</time>
      </trkpt>
      <trkpt lat="45.93038" lon="3.52961">
        <ele>408</ele>
        <time>2010-09-19T14:12:42Z</time>
      </trkpt>
      <trkpt lat="45.93068" lon="3.52986">
        <ele>410</ele>
        <time>2010-09-19T14:12:42Z</time>
      </trkpt>
      <trkpt lat="45.93069" lon="3.53018">
        <ele>412</ele>
        <time>2010-09-19T14:12:42Z</time>
      </trkpt>
      <trkpt lat="45.93012" lon="3.53043">
        <ele>417</ele>
        <time>2010-09-19T14:12:42Z</time>
      </trkpt>
      <trkpt lat="45.9299" lon="3.53033">
        <ele>418</ele>
        <time>2010-09-19T14:12:42Z</time>
      </trkpt>
      <trkpt lat="45.92691" lon="3.53168">
        <ele>454</ele>
        <time>2010-09-19T14:12:42Z</time>
      </trkpt>
      <trkpt lat="45.926" lon="3.53231">
        <ele>461</ele>
        <time>2010-09-19T14:12:42Z</time>
      </trkpt>
      <trkpt lat="45.92584" lon="3.53224">
        <ele>463</ele>
        <time>2010-09-19T14:12:42Z</time>
      </trkpt>
      <trkpt lat="45.92528" lon="3.53156">
        <ele>461</ele>
        <time>2010-09-19T14:12:42Z</time>
      </trkpt>
      <trkpt lat="45.92496" lon="3.53154">
        <ele>460</ele>
        <time>2010-09-19T14:12:42Z</time>
      </trkpt>
      <trkpt lat="45.92458" lon="3.53119">
        <ele>459</ele>
        <time>2010-09-19T14:12:42Z</time>
      </trkpt>
      <trkpt lat="45.92455" lon="3.52891">
        <ele>450</ele>
        <time>2010-09-19T14:12:42Z</time>
      </trkpt>
      <trkpt lat="45.92411" lon="3.52775">
        <ele>445</ele>
        <time>2010-09-19T14:12:42Z</time>
      </trkpt>
      <trkpt lat="45.92297" lon="3.5263">
        <ele>429</ele>
        <time>2010-09-19T14:12:42Z</time>
      </trkpt>
      <trkpt lat="45.92227" lon="3.52603">
        <ele>419</ele>
        <time>2010-09-19T14:12:42Z</time>
      </trkpt>
      <trkpt lat="45.92093" lon="3.52511">
        <ele>412</ele>
        <time>2010-09-19T14:12:42Z</time>
      </trkpt>
      <trkpt lat="45.9202" lon="3.52387">
        <ele>412</ele>
        <time>2010-09-19T14:12:42Z</time>
      </trkpt>
      <trkpt lat="45.91931" lon="3.52305">
        <ele>403</ele>
        <time>2010-09-19T14:12:42Z</time>
      </trkpt>
      <trkpt lat="45.91871" lon="3.5222">
        <ele>401</ele>
        <time>2010-09-19T14:12:42Z</time>
      </trkpt>
      <trkpt lat="45.91833" lon="3.52276">
        <ele>407</ele>
        <time>2010-09-19T14:12:42Z</time>
      </trkpt>
      <trkpt lat="45.91797" lon="3.5238">
        <ele>414</ele>
        <time>2010-09-19T14:12:42Z</time>
      </trkpt>
      <trkpt lat="45.91718" lon="3.52431">
        <ele>419</ele>
        <time>2010-09-19T14:12:42Z</time>
      </trkpt>
      <trkpt lat="45.91659" lon="3.52433">
        <ele>423</ele>
        <time>2010-09-19T14:12:42Z</time>
      </trkpt>
      <trkpt lat="45.91557" lon="3.525">
        <ele>426</ele>
        <time>2010-09-19T14:12:42Z</time>
      </trkpt>
      <trkpt lat="45.91507" lon="3.52538">
        <ele>426</ele>
        <time>2010-09-19T14:12:42Z</time>
      </trkpt>
      <trkpt lat="45.91405" lon="3.52679">
        <ele>426</ele>
        <time>2010-09-19T14:12:42Z</time>
      </trkpt>
      <trkpt lat="45.91337" lon="3.52698">
        <ele>421</ele>
        <time>2010-09-19T14:12:42Z</time>
      </trkpt>
      <trkpt lat="45.91148" lon="3.52698">
        <ele>412</ele>
        <time>2010-09-19T14:12:42Z</time>
      </trkpt>
      <trkpt lat="45.91069" lon="3.52644">
        <ele>403</ele>
        <time>2010-09-19T14:12:42Z</time>
      </trkpt>
      <trkpt lat="45.90935" lon="3.5264">
        <ele>402</ele>
        <time>2010-09-19T14:12:42Z</time>
      </trkpt>
      <trkpt lat="45.90857" lon="3.52714">
        <ele>396</ele>
        <time>2010-09-19T14:12:42Z</time>
      </trkpt>
      <trkpt lat="45.90775" lon="3.52706">
        <ele>387</ele>
        <time>2010-09-19T14:12:42Z</time>
      </trkpt>
      <trkpt lat="45.90764" lon="3.5266">
        <ele>387</ele>
        <time>2010-09-19T14:12:42Z</time>
      </trkpt>
      <trkpt lat="45.90755" lon="3.52739">
        <ele>376</ele>
        <time>2010-09-19T14:12:42Z</time>
      </trkpt>
      <trkpt lat="45.90638" lon="3.52787">
        <ele>375</ele>
        <time>2010-09-19T14:12:42Z</time>
      </trkpt>
      <trkpt lat="45.90538" lon="3.5287">
        <ele>379</ele>
        <time>2010-09-19T14:12:42Z</time>
      </trkpt>
      <trkpt lat="45.90498" lon="3.5297">
        <ele>388</ele>
        <time>2010-09-19T14:12:42Z</time>
      </trkpt>
      <trkpt lat="45.90499" lon="3.53023">
        <ele>391</ele>
        <time>2010-09-19T14:12:42Z</time>
      </trkpt>
      <trkpt lat="45.90463" lon="3.53069">
        <ele>395</ele>
        <time>2010-09-19T14:12:42Z</time>
      </trkpt>
      <trkpt lat="45.90427" lon="3.53082">
        <ele>397</ele>
        <time>2010-09-19T14:12:42Z</time>
      </trkpt>
      <trkpt lat="45.90422" lon="3.53049">
        <ele>401</ele>
        <time>2010-09-19T14:12:42Z</time>
      </trkpt>
      <trkpt lat="45.90386" lon="3.53108">
        <ele>410</ele>
        <time>2010-09-19T14:12:42Z</time>
      </trkpt>
      <trkpt lat="45.90376" lon="3.53161">
        <ele>416</ele>
        <time>2010-09-19T14:12:42Z</time>
      </trkpt>
      <trkpt lat="45.90331" lon="3.53203">
        <ele>426</ele>
        <time>2010-09-19T14:12:42Z</time>
      </trkpt>
      <trkpt lat="45.90304" lon="3.53261">
        <ele>432</ele>
        <time>2010-09-19T14:12:42Z</time>
      </trkpt>
      <trkpt lat="45.90335" lon="3.53379">
        <ele>452</ele>
        <time>2010-09-19T14:12:42Z</time>
      </trkpt>
      <trkpt lat="45.90304" lon="3.5343">
        <ele>459</ele>
        <time>2010-09-19T14:12:42Z</time>
      </trkpt>
      <trkpt lat="45.90349" lon="3.53516">
        <ele>467</ele>
        <time>2010-09-19T14:12:42Z</time>
      </trkpt>
      <trkpt lat="45.90278" lon="3.53503">
        <ele>472</ele>
        <time>2010-09-19T14:12:42Z</time>
      </trkpt>
      <trkpt lat="45.90249" lon="3.53516">
        <ele>477</ele>
        <time>2010-09-19T14:12:42Z</time>
      </trkpt>
      <trkpt lat="45.90042" lon="3.53678">
        <ele>513</ele>
        <time>2010-09-19T14:12:42Z</time>
      </trkpt>
      <trkpt lat="45.90024" lon="3.53739">
        <ele>520</ele>
        <time>2010-09-19T14:12:42Z</time>
      </trkpt>
      <trkpt lat="45.90026" lon="3.53948">
        <ele>546</ele>
        <time>2010-09-19T14:12:42Z</time>
      </trkpt>
      <trkpt lat="45.8993" lon="3.5418">
        <ele>572</ele>
        <time>2010-09-19T14:12:42Z</time>
      </trkpt>
      <trkpt lat="45.8993" lon="3.5422">
        <ele>577</ele>
        <time>2010-09-19T14:12:42Z</time>
      </trkpt>
      <trkpt lat="45.8995" lon="3.54254">
        <ele>578</ele>
        <time>2010-09-19T14:12:42Z</time>
      </trkpt>
      <trkpt lat="45.89952" lon="3.5421">
        <ele>578</ele>
        <time>2010-09-19T14:12:42Z</time>
      </trkpt>
      <trkpt lat="45.89955" lon="3.54254">
        <ele>578</ele>
        <time>2010-09-19T14:12:42Z</time>
      </trkpt>
      <trkpt lat="45.89954" lon="3.54226">
        <ele>578</ele>
        <time>2010-09-19T14:12:42Z</time>
      </trkpt>
      <trkpt lat="45.89939" lon="3.54249">
        <ele>579</ele>
        <time>2010-09-19T14:12:42Z</time>
      </trkpt>
      <trkpt lat="45.89949" lon="3.54237">
        <ele>579</ele>
        <time>2010-09-19T14:12:42Z</time>
      </trkpt>
      <trkpt lat="45.89976" lon="3.54263">
        <ele>582</ele>
        <time>2010-09-19T14:12:42Z</time>
      </trkpt>
      <trkpt lat="45.9" lon="3.54477">
        <ele>601</ele>
        <time>2010-09-19T14:12:42Z</time>
      </trkpt>
      <trkpt lat="45.90025" lon="3.54534">
        <ele>606</ele>
        <time>2010-09-19T14:12:42Z</time>
      </trkpt>
      <trkpt lat="45.90059" lon="3.54592">
        <ele>612</ele>
        <time>2010-09-19T14:12:42Z</time>
      </trkpt>
      <trkpt lat="45.90104" lon="3.54621">
        <ele>616</ele>
        <time>2010-09-19T14:12:42Z</time>
      </trkpt>
      <trkpt lat="45.90168" lon="3.54754">
        <ele>601</ele>
        <time>2010-09-19T14:12:42Z</time>
      </trkpt>
      <trkpt lat="45.90292" lon="3.54845">
        <ele>598</ele>
        <time>2010-09-19T14:12:42Z</time>
      </trkpt>
      <trkpt lat="45.90302" lon="3.54812">
        <ele>600</ele>
        <time>2010-09-19T14:12:42Z</time>
      </trkpt>
      <trkpt lat="45.90405" lon="3.54865">
        <ele>600</ele>
        <time>2010-09-19T14:12:42Z</time>
      </trkpt>
      <trkpt lat="45.90444" lon="3.5487">
        <ele>593</ele>
        <time>2010-09-19T14:12:42Z</time>
      </trkpt>
      <trkpt lat="45.90545" lon="3.54942">
        <ele>586</ele>
        <time>2010-09-19T14:12:42Z</time>
      </trkpt>
      <trkpt lat="45.90697" lon="3.54973">
        <ele>575</ele>
        <time>2010-09-19T14:12:42Z</time>
      </trkpt>
      <trkpt lat="45.90797" lon="3.55184">
        <ele>564</ele>
        <time>2010-09-19T14:12:42Z</time>
      </trkpt>
      <trkpt lat="45.90842" lon="3.5524">
        <ele>563</ele>
        <time>2010-09-19T14:12:42Z</time>
      </trkpt>
      <trkpt lat="45.909" lon="3.55153">
        <ele>556</ele>
        <time>2010-09-19T14:12:42Z</time>
      </trkpt>
      <trkpt lat="45.90976" lon="3.55196">
        <ele>544</ele>
        <time>2010-09-19T14:12:42Z</time>
      </trkpt>
      <trkpt lat="45.9102" lon="3.55174">
        <ele>542</ele>
        <time>2010-09-19T14:12:42Z</time>
      </trkpt>
      <trkpt lat="45.91042" lon="3.55068">
        <ele>555</ele>
        <time>2010-09-19T14:12:42Z</time>
      </trkpt>
      <trkpt lat="45.91199" lon="3.55026">
        <ele>564</ele>
        <time>2010-09-19T14:12:42Z</time>
      </trkpt>
      <trkpt lat="45.91283" lon="3.5504">
        <ele>569</ele>
        <time>2010-09-19T14:12:42Z</time>
      </trkpt>
      <trkpt lat="45.91272" lon="3.55137">
        <ele>570</ele>
        <time>2010-09-19T14:12:42Z</time>
      </trkpt>
      <trkpt lat="45.91319" lon="3.55206">
        <ele>573</ele>
        <time>2010-09-19T14:12:42Z</time>
      </trkpt>
      <trkpt lat="45.91358" lon="3.55568">
        <ele>571</ele>
        <time>2010-09-19T14:12:42Z</time>
      </trkpt>
      <trkpt lat="45.91335" lon="3.55651">
        <ele>562</ele>
        <time>2010-09-19T14:12:42Z</time>
      </trkpt>
      <trkpt lat="45.91315" lon="3.55646">
        <ele>563</ele>
        <time>2010-09-19T14:12:42Z</time>
      </trkpt>
      <trkpt lat="45.91297" lon="3.5557">
        <ele>573</ele>
        <time>2010-09-19T14:12:42Z</time>
      </trkpt>
      <trkpt lat="45.9122" lon="3.55625">
        <ele>586</ele>
        <time>2010-09-19T14:12:42Z</time>
      </trkpt>
      <trkpt lat="45.91102" lon="3.55905">
        <ele>616</ele>
        <time>2010-09-19T14:12:42Z</time>
      </trkpt>
      <trkpt lat="45.91142" lon="3.56026">
        <ele>628</ele>
        <time>2010-09-19T14:12:42Z</time>
      </trkpt>
      <trkpt lat="45.91182" lon="3.56056">
        <ele>632</ele>
        <time>2010-09-19T14:12:42Z</time>
      </trkpt>
      <trkpt lat="45.91204" lon="3.56125">
        <ele>639</ele>
        <time>2010-09-19T14:12:42Z</time>
      </trkpt>
      <trkpt lat="45.91231" lon="3.56129">
        <ele>638</ele>
        <time>2010-09-19T14:12:42Z</time>
      </trkpt>
      <trkpt lat="45.91208" lon="3.56147">
        <ele>640</ele>
        <time>2010-09-19T14:12:42Z</time>
      </trkpt>
      <trkpt lat="45.91226" lon="3.56123">
        <ele>639</ele>
        <time>2010-09-19T14:12:42Z</time>
      </trkpt>
      <trkpt lat="45.91214" lon="3.56122">
        <ele>639</ele>
        <time>2010-09-19T14:12:42Z</time>
      </trkpt>
      <trkpt lat="45.9125" lon="3.56217">
        <ele>637</ele>
        <time>2010-09-19T14:12:42Z</time>
      </trkpt>
      <trkpt lat="45.91247" lon="3.56287">
        <ele>635</ele>
        <time>2010-09-19T14:12:42Z</time>
      </trkpt>
      <trkpt lat="45.91303" lon="3.5661">
        <ele>625</ele>
        <time>2010-09-19T14:12:42Z</time>
      </trkpt>
      <trkpt lat="45.91373" lon="3.56677">
        <ele>625</ele>
        <time>2010-09-19T14:12:42Z</time>
      </trkpt>
      <trkpt lat="45.91377" lon="3.56733">
        <ele>627</ele>
        <time>2010-09-19T14:12:42Z</time>
      </trkpt>
      <trkpt lat="45.9132" lon="3.56811">
        <ele>635</ele>
        <time>2010-09-19T14:12:42Z</time>
      </trkpt>
      <trkpt lat="45.9131" lon="3.56854">
        <ele>638</ele>
        <time>2010-09-19T14:12:42Z</time>
      </trkpt>
      <trkpt lat="45.91276" lon="3.5687">
        <ele>643</ele>
        <time>2010-09-19T14:12:42Z</time>
      </trkpt>
      <trkpt lat="45.91278" lon="3.56824">
        <ele>650</ele>
        <time>2010-09-19T14:12:42Z</time>
      </trkpt>
      <trkpt lat="45.91256" lon="3.56799">
        <ele>652</ele>
        <time>2010-09-19T14:12:42Z</time>
      </trkpt>
      <trkpt lat="45.91227" lon="3.56804">
        <ele>659</ele>
        <time>2010-09-19T14:12:42Z</time>
      </trkpt>
      <trkpt lat="45.91215" lon="3.56829">
        <ele>661</ele>
        <time>2010-09-19T14:12:42Z</time>
      </trkpt>
      <trkpt lat="45.91238" lon="3.56862">
        <ele>664</ele>
        <time>2010-09-19T14:12:42Z</time>
      </trkpt>
      <trkpt lat="45.91129" lon="3.57045">
        <ele>680</ele>
        <time>2010-09-19T14:12:42Z</time>
      </trkpt>
      <trkpt lat="45.91035" lon="3.57021">
        <ele>692</ele>
        <time>2010-09-19T14:12:42Z</time>
      </trkpt>
      <trkpt lat="45.90988" lon="3.57037">
        <ele>695</ele>
        <time>2010-09-19T14:12:42Z</time>
      </trkpt>
      <trkpt lat="45.90977" lon="3.57057">
        <ele>696</ele>
        <time>2010-09-19T14:12:42Z</time>
      </trkpt>
      <trkpt lat="45.90934" lon="3.57041">
        <ele>700</ele>
        <time>2010-09-19T14:12:42Z</time>
      </trkpt>
      <trkpt lat="45.90863" lon="3.56963">
        <ele>704</ele>
        <time>2010-09-19T14:12:42Z</time>
      </trkpt>
      <trkpt lat="45.90831" lon="3.56992">
        <ele>704</ele>
        <time>2010-09-19T14:12:42Z</time>
      </trkpt>
      <trkpt lat="45.90837" lon="3.57022">
        <ele>706</ele>
        <time>2010-09-19T14:12:42Z</time>
      </trkpt>
      <trkpt lat="45.9077" lon="3.57175">
        <ele>714</ele>
        <time>2010-09-19T14:12:42Z</time>
      </trkpt>
      <trkpt lat="45.90782" lon="3.57227">
        <ele>717</ele>
        <time>2010-09-19T14:12:42Z</time>
      </trkpt>
      <trkpt lat="45.90844" lon="3.57261">
        <ele>719</ele>
        <time>2010-09-19T14:12:42Z</time>
      </trkpt>
      <trkpt lat="45.90854" lon="3.57307">
        <ele>720</ele>
        <time>2010-09-19T14:12:42Z</time>
      </trkpt>
      <trkpt lat="45.90896" lon="3.57368">
        <ele>721</ele>
        <time>2010-09-19T14:12:42Z</time>
      </trkpt>
      <trkpt lat="45.90896" lon="3.57431">
        <ele>724</ele>
        <time>2010-09-19T14:12:42Z</time>
      </trkpt>
      <trkpt lat="45.90821" lon="3.57405">
        <ele>739</ele>
        <time>2010-09-19T14:12:42Z</time>
      </trkpt>
      <trkpt lat="45.90708" lon="3.57326">
        <ele>762</ele>
        <time>2010-09-19T14:12:42Z</time>
      </trkpt>
      <trkpt lat="45.90626" lon="3.57298">
        <ele>779</ele>
        <time>2010-09-19T14:12:42Z</time>
      </trkpt>
      <trkpt lat="45.90583" lon="3.57246">
        <ele>789</ele>
        <time>2010-09-19T14:12:42Z</time>
      </trkpt>
      <trkpt lat="45.90538" lon="3.57245">
        <ele>797</ele>
        <time>2010-09-19T14:12:42Z</time>
      </trkpt>
      <trkpt lat="45.90426" lon="3.57284">
        <ele>812</ele>
        <time>2010-09-19T14:12:42Z</time>
      </trkpt>
      <trkpt lat="45.90409" lon="3.57304">
        <ele>814</ele>
        <time>2010-09-19T14:12:42Z</time>
      </trkpt>
      <trkpt lat="45.90384" lon="3.57291">
        <ele>814</ele>
        <time>2010-09-19T14:12:42Z</time>
      </trkpt>
      <trkpt lat="45.90392" lon="3.57306">
        <ele>817</ele>
        <time>2010-09-19T14:12:42Z</time>
      </trkpt>
      <trkpt lat="45.9036" lon="3.5718">
        <ele>820</ele>
        <time>2010-09-19T14:12:42Z</time>
      </trkpt>
      <trkpt lat="45.90338" lon="3.57168">
        <ele>823</ele>
        <time>2010-09-19T14:12:42Z</time>
      </trkpt>
      <trkpt lat="45.90302" lon="3.57169">
        <ele>824</ele>
        <time>2010-09-19T14:12:42Z</time>
      </trkpt>
      <trkpt lat="45.90215" lon="3.57241">
        <ele>831</ele>
        <time>2010-09-19T14:12:42Z</time>
      </trkpt>
      <trkpt lat="45.90153" lon="3.57248">
        <ele>835</ele>
        <time>2010-09-19T14:12:42Z</time>
      </trkpt>
      <trkpt lat="45.90108" lon="3.57179">
        <ele>838</ele>
        <time>2010-09-19T14:12:42Z</time>
      </trkpt>
      <trkpt lat="45.90094" lon="3.57114">
        <ele>840</ele>
        <time>2010-09-19T14:12:42Z</time>
      </trkpt>
      <trkpt lat="45.90225" lon="3.56914">
        <ele>852</ele>
        <time>2010-09-19T14:12:42Z</time>
      </trkpt>
      <trkpt lat="45.90249" lon="3.56791">
        <ele>844</ele>
        <time>2010-09-19T14:12:42Z</time>
      </trkpt>
      <trkpt lat="45.90238" lon="3.56748">
        <ele>843</ele>
        <time>2010-09-19T14:12:42Z</time>
      </trkpt>
      <trkpt lat="45.90216" lon="3.56746">
        <ele>842</ele>
        <time>2010-09-19T14:12:42Z</time>
      </trkpt>
      <trkpt lat="45.90197" lon="3.5672">
        <ele>837</ele>
        <time>2010-09-19T14:12:42Z</time>
      </trkpt>
      <trkpt lat="45.90208" lon="3.5668">
        <ele>831</ele>
        <time>2010-09-19T14:12:42Z</time>
      </trkpt>
      <trkpt lat="45.90182" lon="3.56576">
        <ele>807</ele>
        <time>2010-09-19T14:12:42Z</time>
      </trkpt>
      <trkpt lat="45.90128" lon="3.56578">
        <ele>803</ele>
        <time>2010-09-19T14:12:42Z</time>
      </trkpt>
      <trkpt lat="45.90088" lon="3.56497">
        <ele>785</ele>
        <time>2010-09-19T14:12:42Z</time>
      </trkpt>
      <trkpt lat="45.90045" lon="3.56454">
        <ele>767</ele>
        <time>2010-09-19T14:12:42Z</time>
      </trkpt>
      <trkpt lat="45.89914" lon="3.56515">
        <ele>754</ele>
        <time>2010-09-19T14:12:42Z</time>
      </trkpt>
      <trkpt lat="45.89948" lon="3.56507">
        <ele>753</ele>
        <time>2010-09-19T14:12:42Z</time>
      </trkpt>
      <trkpt lat="45.89934" lon="3.56503">
        <ele>752</ele>
        <time>2010-09-19T14:12:42Z</time>
      </trkpt>
      <trkpt lat="45.89928" lon="3.56533">
        <ele>752</ele>
        <time>2010-09-19T14:12:42Z</time>
      </trkpt>
      <trkpt lat="45.8993" lon="3.56503">
        <ele>752</ele>
        <time>2010-09-19T14:12:42Z</time>
      </trkpt>
      <trkpt lat="45.89915" lon="3.56507">
        <ele>753</ele>
        <time>2010-09-19T14:12:42Z</time>
      </trkpt>
      <trkpt lat="45.89928" lon="3.56518">
        <ele>754</ele>
        <time>2010-09-19T14:12:42Z</time>
      </trkpt>
      <trkpt lat="45.89917" lon="3.56527">
        <ele>754</ele>
        <time>2010-09-19T14:12:42Z</time>
      </trkpt>
      <trkpt lat="45.89926" lon="3.56495">
        <ele>755</ele>
        <time>2010-09-19T14:12:42Z</time>
      </trkpt>
      <trkpt lat="45.89889" lon="3.56522">
        <ele>746</ele>
        <time>2010-09-19T14:12:42Z</time>
      </trkpt>
      <trkpt lat="45.89766" lon="3.56664">
        <ele>753</ele>
        <time>2010-09-19T14:12:42Z</time>
      </trkpt>
      <trkpt lat="45.89706" lon="3.56816">
        <ele>758</ele>
        <time>2010-09-19T14:12:42Z</time>
      </trkpt>
      <trkpt lat="45.89627" lon="3.57093">
        <ele>756</ele>
        <time>2010-09-19T14:12:42Z</time>
      </trkpt>
      <trkpt lat="45.896" lon="3.5719">
        <ele>749</ele>
        <time>2010-09-19T14:12:42Z</time>
      </trkpt>
      <trkpt lat="45.89606" lon="3.57239">
        <ele>747</ele>
        <time>2010-09-19T14:12:42Z</time>
      </trkpt>
      <trkpt lat="45.89594" lon="3.57194">
        <ele>750</ele>
        <time>2010-09-19T14:12:42Z</time>
      </trkpt>
      <trkpt lat="45.89627" lon="3.57078">
        <ele>755</ele>
        <time>2010-09-19T14:12:42Z</time>
      </trkpt>
      <trkpt lat="45.89461" lon="3.56981">
        <ele>736</ele>
        <time>2010-09-19T14:12:42Z</time>
      </trkpt>
      <trkpt lat="45.89406" lon="3.56988">
        <ele>732</ele>
        <time>2010-09-19T14:12:42Z</time>
      </trkpt>
      <trkpt lat="45.89389" lon="3.5706">
        <ele>733</ele>
        <time>2010-09-19T14:12:42Z</time>
      </trkpt>
      <trkpt lat="45.89482" lon="3.57187">
        <ele>730</ele>
        <time>2010-09-19T14:12:42Z</time>
      </trkpt>
      <trkpt lat="45.89518" lon="3.5731">
        <ele>733</ele>
        <time>2010-09-19T14:12:42Z</time>
      </trkpt>
      <trkpt lat="45.89573" lon="3.57403">
        <ele>737</ele>
        <time>2010-09-19T14:12:42Z</time>
      </trkpt>
      <trkpt lat="45.89512" lon="3.57507">
        <ele>741</ele>
        <time>2010-09-19T14:12:42Z</time>
      </trkpt>
      <trkpt lat="45.89468" lon="3.5755">
        <ele>744</ele>
        <time>2010-09-19T14:12:42Z</time>
      </trkpt>
      <trkpt lat="45.89357" lon="3.57736">
        <ele>738</ele>
        <time>2010-09-19T14:12:42Z</time>
      </trkpt>
      <trkpt lat="45.89332" lon="3.57908">
        <ele>724</ele>
        <time>2010-09-19T14:12:42Z</time>
      </trkpt>
      <trkpt lat="45.89347" lon="3.58162">
        <ele>708</ele>
        <time>2010-09-19T14:12:42Z</time>
      </trkpt>
      <trkpt lat="45.89315" lon="3.58289">
        <ele>707</ele>
        <time>2010-09-19T14:12:42Z</time>
      </trkpt>
      <trkpt lat="45.89263" lon="3.58283">
        <ele>707</ele>
        <time>2010-09-19T14:12:42Z</time>
      </trkpt>
      <trkpt lat="45.89227" lon="3.58306">
        <ele>709</ele>
        <time>2010-09-19T14:12:42Z</time>
      </trkpt>
      <trkpt lat="45.89275" lon="3.58304">
        <ele>709</ele>
        <time>2010-09-19T14:12:42Z</time>
      </trkpt>
      <trkpt lat="45.89335" lon="3.58245">
        <ele>706</ele>
        <time>2010-09-19T14:12:42Z</time>
      </trkpt>
      <trkpt lat="45.89414" lon="3.58502">
        <ele>674</ele>
        <time>2010-09-19T14:12:42Z</time>
      </trkpt>
      <trkpt lat="45.89463" lon="3.58606">
        <ele>654</ele>
        <time>2010-09-19T14:12:42Z</time>
      </trkpt>
      <trkpt lat="45.89406" lon="3.58629">
        <ele>646</ele>
        <time>2010-09-19T14:12:42Z</time>
      </trkpt>
      <trkpt lat="45.8949" lon="3.58661">
        <ele>646</ele>
        <time>2010-09-19T14:12:42Z</time>
      </trkpt>
      <trkpt lat="45.89486" lon="3.58717">
        <ele>649</ele>
        <time>2010-09-19T14:12:42Z</time>
      </trkpt>
      <trkpt lat="45.89441" lon="3.58727">
        <ele>650</ele>
        <time>2010-09-19T14:12:42Z</time>
      </trkpt>
      <trkpt lat="45.89425" lon="3.58783">
        <ele>652</ele>
        <time>2010-09-19T14:12:42Z</time>
      </trkpt>
      <trkpt lat="45.89435" lon="3.58813">
        <ele>655</ele>
        <time>2010-09-19T14:12:42Z</time>
      </trkpt>
      <trkpt lat="45.89518" lon="3.58867">
        <ele>667</ele>
        <time>2010-09-19T14:12:42Z</time>
      </trkpt>
      <trkpt lat="45.89614" lon="3.58972">
        <ele>680</ele>
        <time>2010-09-19T14:12:42Z</time>
      </trkpt>
      <trkpt lat="45.89688" lon="3.59143">
        <ele>698</ele>
        <time>2010-09-19T14:12:42Z</time>
      </trkpt>
      <trkpt lat="45.89665" lon="3.59242">
        <ele>704</ele>
        <time>2010-09-19T14:12:42Z</time>
      </trkpt>
      <trkpt lat="45.89664" lon="3.59386">
        <ele>696</ele>
        <time>2010-09-19T14:12:42Z</time>
      </trkpt>
      <trkpt lat="45.89621" lon="3.59381">
        <ele>694</ele>
        <time>2010-09-19T14:12:42Z</time>
      </trkpt>
      <trkpt lat="45.89576" lon="3.59418">
        <ele>692</ele>
        <time>2010-09-19T14:12:42Z</time>
      </trkpt>
      <trkpt lat="45.89521" lon="3.59474">
        <ele>689</ele>
        <time>2010-09-19T14:12:42Z</time>
      </trkpt>
      <trkpt lat="45.89469" lon="3.59575">
        <ele>688</ele>
        <time>2010-09-19T14:12:42Z</time>
      </trkpt>
      <trkpt lat="45.89502" lon="3.59674">
        <ele>677</ele>
        <time>2010-09-19T14:12:42Z</time>
      </trkpt>
      <trkpt lat="45.89525" lon="3.59694">
        <ele>676</ele>
        <time>2010-09-19T14:12:42Z</time>
      </trkpt>
      <trkpt lat="45.8954" lon="3.59665">
        <ele>677</ele>
        <time>2010-09-19T14:12:42Z</time>
      </trkpt>
      <trkpt lat="45.89503" lon="3.59626">
        <ele>683</ele>
        <time>2010-09-19T14:12:42Z</time>
      </trkpt>
      <trkpt lat="45.89524" lon="3.59712">
        <ele>676</ele>
        <time>2010-09-19T14:12:42Z</time>
      </trkpt>
      <trkpt lat="45.8948" lon="3.59743">
        <ele>672</ele>
        <time>2010-09-19T14:12:42Z</time>
      </trkpt>
      <trkpt lat="45.89473" lon="3.59773">
        <ele>666</ele>
        <time>2010-09-19T14:12:42Z</time>
      </trkpt>
      <trkpt lat="45.89494" lon="3.59794">
        <ele>663</ele>
        <time>2010-09-19T14:12:42Z</time>
      </trkpt>
      <trkpt lat="45.8946" lon="3.59811">
        <ele>663</ele>
        <time>2010-09-19T14:12:42Z</time>
      </trkpt>
      <trkpt lat="45.89475" lon="3.59785">
        <ele>663</ele>
        <time>2010-09-19T14:12:42Z</time>
      </trkpt>
      <trkpt lat="45.89457" lon="3.59809">
        <ele>664</ele>
        <time>2010-09-19T14:12:42Z</time>
      </trkpt>
      <trkpt lat="45.89491" lon="3.59773">
        <ele>665</ele>
        <time>2010-09-19T14:12:42Z</time>
      </trkpt>
      <trkpt lat="45.89483" lon="3.59795">
        <ele>666</ele>
        <time>2010-09-19T14:12:42Z</time>
      </trkpt>
      <trkpt lat="45.89475" lon="3.59787">
        <ele>666</ele>
        <time>2010-09-19T14:12:42Z</time>
      </trkpt>
      <trkpt lat="45.89487" lon="3.59781">
        <ele>667</ele>
        <time>2010-09-19T14:12:42Z</time>
      </trkpt>
      <trkpt lat="45.89473" lon="3.59781">
        <ele>666</ele>
        <time>2010-09-19T14:12:42Z</time>
      </trkpt>
      <trkpt lat="45.89511" lon="3.59778">
        <ele>667</ele>
        <time>2010-09-19T14:12:42Z</time>
      </trkpt>
      <trkpt lat="45.8957" lon="3.59791">
        <ele>668</ele>
        <time>2010-09-19T14:12:42Z</time>
      </trkpt>
      <trkpt lat="45.89607" lon="3.59861">
        <ele>665</ele>
        <time>2010-09-19T14:12:42Z</time>
      </trkpt>
      <trkpt lat="45.89627" lon="3.59961">
        <ele>662</ele>
        <time>2010-09-19T14:12:42Z</time>
      </trkpt>
      <trkpt lat="45.8967" lon="3.59983">
        <ele>662</ele>
        <time>2010-09-19T14:12:42Z</time>
      </trkpt>
      <trkpt lat="45.89717" lon="3.59982">
        <ele>663</ele>
        <time>2010-09-19T14:12:42Z</time>
      </trkpt>
      <trkpt lat="45.89791" lon="3.59942">
        <ele>665</ele>
        <time>2010-09-19T14:12:42Z</time>
      </trkpt>
      <trkpt lat="45.89813" lon="3.59966">
        <ele>663</ele>
        <time>2010-09-19T14:12:42Z</time>
      </trkpt>
      <trkpt lat="45.8981" lon="3.60072">
        <ele>665</ele>
        <time>2010-09-19T14:12:42Z</time>
      </trkpt>
      <trkpt lat="45.89829" lon="3.601">
        <ele>669</ele>
        <time>2010-09-19T14:12:42Z</time>
      </trkpt>
      <trkpt lat="45.89867" lon="3.60097">
        <ele>673</ele>
        <time>2010-09-19T14:12:42Z</time>
      </trkpt>
      <trkpt lat="45.89856" lon="3.60158">
        <ele>680</ele>
        <time>2010-09-19T14:12:42Z</time>
      </trkpt>
      <trkpt lat="45.89883" lon="3.60219">
        <ele>685</ele>
        <time>2010-09-19T14:12:42Z</time>
      </trkpt>
      <trkpt lat="45.89874" lon="3.6034">
        <ele>682</ele>
        <time>2010-09-19T14:12:42Z</time>
      </trkpt>
      <trkpt lat="45.89906" lon="3.60376">
        <ele>684</ele>
        <time>2010-09-19T14:12:42Z</time>
      </trkpt>
      <trkpt lat="45.89886" lon="3.60449">
        <ele>685</ele>
        <time>2010-09-19T14:12:42Z</time>
      </trkpt>
      <trkpt lat="45.8991" lon="3.60583">
        <ele>687</ele>
        <time>2010-09-19T14:12:42Z</time>
      </trkpt>
      <trkpt lat="45.90024" lon="3.60673">
        <ele>689</ele>
        <time>2010-09-19T14:12:42Z</time>
      </trkpt>
      <trkpt lat="45.90043" lon="3.60733">
        <ele>690</ele>
        <time>2010-09-19T14:12:42Z</time>
      </trkpt>
      <trkpt lat="45.89974" lon="3.60783">
        <ele>693</ele>
        <time>2010-09-19T14:12:42Z</time>
      </trkpt>
      <trkpt lat="45.89943" lon="3.60843">
        <ele>695</ele>
        <time>2010-09-19T14:12:42Z</time>
      </trkpt>
      <trkpt lat="45.89883" lon="3.60838">
        <ele>695</ele>
        <time>2010-09-19T14:12:42Z</time>
      </trkpt>
      <trkpt lat="45.89779" lon="3.60717">
        <ele>697</ele>
        <time>2010-09-19T14:12:42Z</time>
      </trkpt>
      <trkpt lat="45.89601" lon="3.60586">
        <ele>689</ele>
        <time>2010-09-19T14:12:42Z</time>
      </trkpt>
      <trkpt lat="45.8943" lon="3.60368">
        <ele>676</ele>
        <time>2010-09-19T14:12:42Z</time>
      </trkpt>
      <trkpt lat="45.89401" lon="3.60448">
        <ele>684</ele>
        <time>2010-09-19T14:12:42Z</time>
      </trkpt>
      <trkpt lat="45.89368" lon="3.60437">
        <ele>688</ele>
        <time>2010-09-19T14:12:42Z</time>
      </trkpt>
      <trkpt lat="45.89335" lon="3.60423">
        <ele>693</ele>
        <time>2010-09-19T14:12:42Z</time>
      </trkpt>
      <trkpt lat="45.89259" lon="3.60317">
        <ele>681</ele>
        <time>2010-09-19T14:12:42Z</time>
      </trkpt>
      <trkpt lat="45.89158" lon="3.60271">
        <ele>668</ele>
        <time>2010-09-19T14:12:42Z</time>
      </trkpt>
      <trkpt lat="45.89073" lon="3.60254">
        <ele>657</ele>
        <time>2010-09-19T14:12:42Z</time>
      </trkpt>
      <trkpt lat="45.88998" lon="3.60286">
        <ele>650</ele>
        <time>2010-09-19T14:12:42Z</time>
      </trkpt>
      <trkpt lat="45.88958" lon="3.60256">
        <ele>652</ele>
        <time>2010-09-19T14:12:42Z</time>
      </trkpt>
      <trkpt lat="45.88768" lon="3.60351">
        <ele>673</ele>
        <time>2010-09-19T14:12:42Z</time>
      </trkpt>
      <trkpt lat="45.8871" lon="3.60277">
        <ele>677</ele>
        <time>2010-09-19T14:12:42Z</time>
      </trkpt>
      <trkpt lat="45.88664" lon="3.60265">
        <ele>679</ele>
        <time>2010-09-19T14:12:42Z</time>
      </trkpt>
      <trkpt lat="45.88542" lon="3.60194">
        <ele>669</ele>
        <time>2010-09-19T14:12:42Z</time>
      </trkpt>
      <trkpt lat="45.88286" lon="3.60189">
        <ele>648</ele>
        <time>2010-09-19T14:12:42Z</time>
      </trkpt>
      <trkpt lat="45.88278" lon="3.60267">
        <ele>639</ele>
        <time>2010-09-19T14:12:42Z</time>
      </trkpt>
      <trkpt lat="45.88316" lon="3.60346">
        <ele>631</ele>
        <time>2010-09-19T14:12:42Z</time>
      </trkpt>
      <trkpt lat="45.88318" lon="3.60476">
        <ele>619</ele>
        <time>2010-09-19T14:12:42Z</time>
      </trkpt>
      <trkpt lat="45.88328" lon="3.60697">
        <ele>633</ele>
        <time>2010-09-19T14:12:42Z</time>
      </trkpt>
      <trkpt lat="45.88309" lon="3.60758">
        <ele>636</ele>
        <time>2010-09-19T14:12:42Z</time>
      </trkpt>
      <trkpt lat="45.88325" lon="3.60758">
        <ele>636</ele>
        <time>2010-09-19T14:12:42Z</time>
      </trkpt>
      <trkpt lat="45.88314" lon="3.60757">
        <ele>636</ele>
        <time>2010-09-19T14:12:42Z</time>
      </trkpt>
      <trkpt lat="45.88288" lon="3.60841">
        <ele>626</ele>
        <time>2010-09-19T14:12:42Z</time>
      </trkpt>
      <trkpt lat="45.88233" lon="3.61112">
        <ele>616</ele>
        <time>2010-09-19T14:12:42Z</time>
      </trkpt>
      <trkpt lat="45.88241" lon="3.6117">
        <ele>617</ele>
        <time>2010-09-19T14:12:42Z</time>
      </trkpt>
      <trkpt lat="45.88291" lon="3.61296">
        <ele>628</ele>
        <time>2010-09-19T14:12:42Z</time>
      </trkpt>
      <trkpt lat="45.88335" lon="3.61348">
        <ele>635</ele>
        <time>2010-09-19T14:12:42Z</time>
      </trkpt>
      <trkpt lat="45.8837" lon="3.61365">
        <ele>638</ele>
        <time>2010-09-19T14:12:42Z</time>
      </trkpt>
      <trkpt lat="45.88427" lon="3.61249">
        <ele>656</ele>
        <time>2010-09-19T14:12:42Z</time>
      </trkpt>
      <trkpt lat="45.88418" lon="3.61221">
        <ele>659</ele>
        <time>2010-09-19T14:12:42Z</time>
      </trkpt>
      <trkpt lat="45.88437" lon="3.61213">
        <ele>660</ele>
        <time>2010-09-19T14:12:42Z</time>
      </trkpt>
      <trkpt lat="45.8846" lon="3.61158">
        <ele>665</ele>
        <time>2010-09-19T14:12:42Z</time>
      </trkpt>
      <trkpt lat="45.88499" lon="3.60906">
        <ele>674</ele>
        <time>2010-09-19T14:12:42Z</time>
      </trkpt>
      <trkpt lat="45.88452" lon="3.60767">
        <ele>680</ele>
        <time>2010-09-19T14:12:42Z</time>
      </trkpt>
      <trkpt lat="45.88478" lon="3.60707">
        <ele>683</ele>
        <time>2010-09-19T14:12:42Z</time>
      </trkpt>
      <trkpt lat="45.88566" lon="3.60741">
        <ele>695</ele>
        <time>2010-09-19T14:12:42Z</time>
      </trkpt>
      <trkpt lat="45.88597" lon="3.60793">
        <ele>698</ele>
        <time>2010-09-19T14:12:42Z</time>
      </trkpt>
      <trkpt lat="45.88614" lon="3.60957">
        <ele>690</ele>
        <time>2010-09-19T14:12:42Z</time>
      </trkpt>
      <trkpt lat="45.88764" lon="3.60777">
        <ele>714</ele>
        <time>2010-09-19T14:12:42Z</time>
      </trkpt>
      <trkpt lat="45.88826" lon="3.60751">
        <ele>717</ele>
        <time>2010-09-19T14:12:42Z</time>
      </trkpt>
      <trkpt lat="45.89017" lon="3.60763">
        <ele>722</ele>
        <time>2010-09-19T14:12:42Z</time>
      </trkpt>
      <trkpt lat="45.89213" lon="3.60868">
        <ele>729</ele>
        <time>2010-09-19T14:12:42Z</time>
      </trkpt>
      <trkpt lat="45.89353" lon="3.60897">
        <ele>726</ele>
        <time>2010-09-19T14:12:42Z</time>
      </trkpt>
      <trkpt lat="45.89444" lon="3.60874">
        <ele>727</ele>
        <time>2010-09-19T14:12:42Z</time>
      </trkpt>
      <trkpt lat="45.89589" lon="3.60891">
        <ele>730</ele>
        <time>2010-09-19T14:12:42Z</time>
      </trkpt>
      <trkpt lat="45.89691" lon="3.6095">
        <ele>724</ele>
        <time>2010-09-19T14:12:42Z</time>
      </trkpt>
      <trkpt lat="45.89819" lon="3.61102">
        <ele>721</ele>
        <time>2010-09-19T14:12:42Z</time>
      </trkpt>
      <trkpt lat="45.89832" lon="3.61156">
        <ele>721</ele>
        <time>2010-09-19T14:12:42Z</time>
      </trkpt>
      <trkpt lat="45.89861" lon="3.61188">
        <ele>722</ele>
        <time>2010-09-19T14:12:42Z</time>
      </trkpt>
      <trkpt lat="45.89927" lon="3.61226">
        <ele>719</ele>
        <time>2010-09-19T14:12:42Z</time>
      </trkpt>
      <trkpt lat="45.89974" lon="3.61229">
        <ele>720</ele>
        <time>2010-09-19T14:12:42Z</time>
      </trkpt>
      <trkpt lat="45.90065" lon="3.61329">
        <ele>733</ele>
        <time>2010-09-19T14:12:42Z</time>
      </trkpt>
      <trkpt lat="45.90175" lon="3.61361">
        <ele>743</ele>
        <time>2010-09-19T14:12:42Z</time>
      </trkpt>
      <trkpt lat="45.90191" lon="3.61381">
        <ele>746</ele>
        <time>2010-09-19T14:12:42Z</time>
      </trkpt>
      <trkpt lat="45.90249" lon="3.61373">
        <ele>755</ele>
        <time>2010-09-19T14:12:42Z</time>
      </trkpt>
      <trkpt lat="45.90305" lon="3.6139">
        <ele>758</ele>
        <time>2010-09-19T14:12:42Z</time>
      </trkpt>
      <trkpt lat="45.90293" lon="3.6141">
        <ele>759</ele>
        <time>2010-09-19T14:12:42Z</time>
      </trkpt>
      <trkpt lat="45.90366" lon="3.61391">
        <ele>767</ele>
        <time>2010-09-19T14:12:42Z</time>
      </trkpt>
      <trkpt lat="45.90422" lon="3.61351">
        <ele>778</ele>
        <time>2010-09-19T14:12:42Z</time>
      </trkpt>
      <trkpt lat="45.90454" lon="3.61356">
        <ele>785</ele>
        <time>2010-09-19T14:12:42Z</time>
      </trkpt>
      <trkpt lat="45.90517" lon="3.61322">
        <ele>785</ele>
        <time>2010-09-19T14:12:42Z</time>
      </trkpt>
      <trkpt lat="45.90508" lon="3.61329">
        <ele>785</ele>
        <time>2010-09-19T14:12:42Z</time>
      </trkpt>
      <trkpt lat="45.90528" lon="3.61341">
        <ele>786</ele>
        <time>2010-09-19T14:12:42Z</time>
      </trkpt>
      <trkpt lat="45.90555" lon="3.61338">
        <ele>787</ele>
        <time>2010-09-19T14:12:42Z</time>
      </trkpt>
      <trkpt lat="45.90613" lon="3.61396">
        <ele>785</ele>
        <time>2010-09-19T14:12:42Z</time>
      </trkpt>
      <trkpt lat="45.90687" lon="3.61427">
        <ele>784</ele>
        <time>2010-09-19T14:12:42Z</time>
      </trkpt>
      <trkpt lat="45.90687" lon="3.61495">
        <ele>787</ele>
        <time>2010-09-19T14:12:42Z</time>
      </trkpt>
      <trkpt lat="45.90765" lon="3.61571">
        <ele>799</ele>
        <time>2010-09-19T14:12:42Z</time>
      </trkpt>
      <trkpt lat="45.9085" lon="3.61574">
        <ele>803</ele>
        <time>2010-09-19T14:12:42Z</time>
      </trkpt>
      <trkpt lat="45.90848" lon="3.61634">
        <ele>802</ele>
        <time>2010-09-19T14:12:42Z</time>
      </trkpt>
      <trkpt lat="45.9087" lon="3.61668">
        <ele>801</ele>
        <time>2010-09-19T14:12:42Z</time>
      </trkpt>
      <trkpt lat="45.90928" lon="3.6168">
        <ele>798</ele>
        <time>2010-09-19T14:12:42Z</time>
      </trkpt>
      <trkpt lat="45.90928" lon="3.61809">
        <ele>799</ele>
        <time>2010-09-19T14:12:42Z</time>
      </trkpt>
      <trkpt lat="45.9099" lon="3.61901">
        <ele>804</ele>
        <time>2010-09-19T14:12:42Z</time>
      </trkpt>
      <trkpt lat="45.9107" lon="3.61921">
        <ele>797</ele>
        <time>2010-09-19T14:12:42Z</time>
      </trkpt>
      <trkpt lat="45.91122" lon="3.61844">
        <ele>789</ele>
        <time>2010-09-19T14:12:42Z</time>
      </trkpt>
      <trkpt lat="45.91193" lon="3.61899">
        <ele>779</ele>
        <time>2010-09-19T14:12:42Z</time>
      </trkpt>
      <trkpt lat="45.91205" lon="3.61955">
        <ele>775</ele>
        <time>2010-09-19T14:12:42Z</time>
      </trkpt>
      <trkpt lat="45.91339" lon="3.61975">
        <ele>769</ele>
        <time>2010-09-19T14:12:42Z</time>
      </trkpt>
      <trkpt lat="45.9138" lon="3.6201">
        <ele>765</ele>
        <time>2010-09-19T14:12:42Z</time>
      </trkpt>
      <trkpt lat="45.91492" lon="3.6186">
        <ele>744</ele>
        <time>2010-09-19T14:12:42Z</time>
      </trkpt>
      <trkpt lat="45.91552" lon="3.61707">
        <ele>730</ele>
        <time>2010-09-19T14:12:42Z</time>
      </trkpt>
      <trkpt lat="45.9158" lon="3.61749">
        <ele>734</ele>
        <time>2010-09-19T14:12:42Z</time>
      </trkpt>
      <trkpt lat="45.91616" lon="3.61725">
        <ele>734</ele>
        <time>2010-09-19T14:12:42Z</time>
      </trkpt>
      <trkpt lat="45.91586" lon="3.61749">
        <ele>733</ele>
        <time>2010-09-19T14:12:42Z</time>
      </trkpt>
      <trkpt lat="45.9159" lon="3.61808">
        <ele>736</ele>
        <time>2010-09-19T14:12:42Z</time>
      </trkpt>
      <trkpt lat="45.91639" lon="3.61821">
        <ele>737</ele>
        <time>2010-09-19T14:12:42Z</time>
      </trkpt>
      <trkpt lat="45.9168" lon="3.61806">
        <ele>743</ele>
        <time>2010-09-19T14:12:42Z</time>
      </trkpt>
      <trkpt lat="45.91708" lon="3.61772">
        <ele>747</ele>
        <time>2010-09-19T14:12:42Z</time>
      </trkpt>
      <trkpt lat="45.9198" lon="3.61685">
        <ele>747</ele>
        <time>2010-09-19T14:12:42Z</time>
      </trkpt>
      <trkpt lat="45.91807" lon="3.61743">
        <ele>748</ele>
        <time>2010-09-19T14:12:42Z</time>
      </trkpt>
      <trkpt lat="45.91997" lon="3.6158">
        <ele>728</ele>
        <time>2010-09-19T14:12:42Z</time>
      </trkpt>
      <trkpt lat="45.92104" lon="3.61466">
        <ele>724</ele>
        <time>2010-09-19T14:12:42Z</time>
      </trkpt>
      <trkpt lat="45.92213" lon="3.6144">
        <ele>733</ele>
        <time>2010-09-19T14:12:42Z</time>
      </trkpt>
      <trkpt lat="45.92259" lon="3.61379">
        <ele>741</ele>
        <time>2010-09-19T14:12:42Z</time>
      </trkpt>
      <trkpt lat="45.92303" lon="3.6127">
        <ele>738</ele>
        <time>2010-09-19T14:12:42Z</time>
      </trkpt>
      <trkpt lat="45.92434" lon="3.61104">
        <ele>724</ele>
        <time>2010-09-19T14:12:42Z</time>
      </trkpt>
      <trkpt lat="45.92463" lon="3.61002">
        <ele>723</ele>
        <time>2010-09-19T14:12:42Z</time>
      </trkpt>
      <trkpt lat="45.92594" lon="3.60941">
        <ele>729</ele>
        <time>2010-09-19T14:12:42Z</time>
      </trkpt>
      <trkpt lat="45.92632" lon="3.60853">
        <ele>727</ele>
        <time>2010-09-19T14:12:42Z</time>
      </trkpt>
      <trkpt lat="45.92648" lon="3.60698">
        <ele>722</ele>
        <time>2010-09-19T14:12:42Z</time>
      </trkpt>
      <trkpt lat="45.92609" lon="3.60582">
        <ele>724</ele>
        <time>2010-09-19T14:12:42Z</time>
      </trkpt>
      <trkpt lat="45.92605" lon="3.60383">
        <ele>736</ele>
        <time>2010-09-19T14:12:42Z</time>
      </trkpt>
      <trkpt lat="45.92571" lon="3.60339">
        <ele>737</ele>
        <time>2010-09-19T14:12:42Z</time>
      </trkpt>
      <trkpt lat="45.92578" lon="3.60352">
        <ele>737</ele>
        <time>2010-09-19T14:12:42Z</time>
      </trkpt>
      <trkpt lat="45.92609" lon="3.60316">
        <ele>739</ele>
        <time>2010-09-19T14:12:42Z</time>
      </trkpt>
      <trkpt lat="45.92649" lon="3.60226">
        <ele>740</ele>
        <time>2010-09-19T14:12:42Z</time>
      </trkpt>
      <trkpt lat="45.92637" lon="3.60122">
        <ele>737</ele>
        <time>2010-09-19T14:12:42Z</time>
      </trkpt>
      <trkpt lat="45.92647" lon="3.60047">
        <ele>737</ele>
        <time>2010-09-19T14:12:42Z</time>
      </trkpt>
      <trkpt lat="45.92617" lon="3.59986">
        <ele>738</ele>
        <time>2010-09-19T14:12:42Z</time>
      </trkpt>
      <trkpt lat="45.92608" lon="3.59783">
        <ele>745</ele>
        <time>2010-09-19T14:12:42Z</time>
      </trkpt>
      <trkpt lat="45.92498" lon="3.5984">
        <ele>751</ele>
        <time>2010-09-19T14:12:42Z</time>
      </trkpt>
      <trkpt lat="45.92413" lon="3.59936">
        <ele>760</ele>
        <time>2010-09-19T14:12:42Z</time>
      </trkpt>
      <trkpt lat="45.9239" lon="3.60043">
        <ele>767</ele>
        <time>2010-09-19T14:12:42Z</time>
      </trkpt>
      <trkpt lat="45.92418" lon="3.60099">
        <ele>770</ele>
        <time>2010-09-19T14:12:42Z</time>
      </trkpt>
      <trkpt lat="45.92377" lon="3.60206">
        <ele>781</ele>
        <time>2010-09-19T14:12:42Z</time>
      </trkpt>
      <trkpt lat="45.92386" lon="3.60255">
        <ele>786</ele>
        <time>2010-09-19T14:12:42Z</time>
      </trkpt>
      <trkpt lat="45.92368" lon="3.60327">
        <ele>800</ele>
        <time>2010-09-19T14:12:42Z</time>
      </trkpt>
      <trkpt lat="45.92306" lon="3.60354">
        <ele>813</ele>
        <time>2010-09-19T14:12:42Z</time>
      </trkpt>
      <trkpt lat="45.92233" lon="3.60308">
        <ele>826</ele>
        <time>2010-09-19T14:12:42Z</time>
      </trkpt>
      <trkpt lat="45.92246" lon="3.60326">
        <ele>824</ele>
        <time>2010-09-19T14:12:42Z</time>
      </trkpt>
      <trkpt lat="45.92277" lon="3.60322">
        <ele>824</ele>
        <time>2010-09-19T14:12:42Z</time>
      </trkpt>
      <trkpt lat="45.92179" lon="3.60372">
        <ele>829</ele>
        <time>2010-09-19T14:12:42Z</time>
      </trkpt>
      <trkpt lat="45.92229" lon="3.60361">
        <ele>830</ele>
        <time>2010-09-19T14:12:42Z</time>
      </trkpt>
      <trkpt lat="45.92284" lon="3.60318">
        <ele>826</ele>
        <time>2010-09-19T14:12:42Z</time>
      </trkpt>
      <trkpt lat="45.92253" lon="3.603">
        <ele>832</ele>
        <time>2010-09-19T14:12:42Z</time>
      </trkpt>
      <trkpt lat="45.92107" lon="3.60309">
        <ele>859</ele>
        <time>2010-09-19T14:12:42Z</time>
      </trkpt>
      <trkpt lat="45.92069" lon="3.60271">
        <ele>870</ele>
        <time>2010-09-19T14:12:42Z</time>
      </trkpt>
      <trkpt lat="45.92055" lon="3.6028">
        <ele>877</ele>
        <time>2010-09-19T14:12:42Z</time>
      </trkpt>
      <trkpt lat="45.92031" lon="3.60262">
        <ele>882</ele>
        <time>2010-09-19T14:12:42Z</time>
      </trkpt>
      <trkpt lat="45.91968" lon="3.60289">
        <ele>889</ele>
        <time>2010-09-19T14:12:42Z</time>
      </trkpt>
      <trkpt lat="45.91958" lon="3.60273">
        <ele>889</ele>
        <time>2010-09-19T14:12:42Z</time>
      </trkpt>
      <trkpt lat="45.91967" lon="3.60284">
        <ele>891</ele>
        <time>2010-09-19T14:12:42Z</time>
      </trkpt>
      <trkpt lat="45.91903" lon="3.60477">
        <ele>899</ele>
        <time>2010-09-19T14:12:42Z</time>
      </trkpt>
      <trkpt lat="45.91836" lon="3.60565">
        <ele>904</ele>
        <time>2010-09-19T14:12:42Z</time>
      </trkpt>
      <trkpt lat="45.91758" lon="3.60589">
        <ele>907</ele>
        <time>2010-09-19T14:12:42Z</time>
      </trkpt>
      <trkpt lat="45.91667" lon="3.60572">
        <ele>909</ele>
        <time>2010-09-19T14:12:42Z</time>
      </trkpt>
      <trkpt lat="45.9162" lon="3.60587">
        <ele>909</ele>
        <time>2010-09-19T14:12:42Z</time>
      </trkpt>
      <trkpt lat="45.91535" lon="3.60543">
        <ele>913</ele>
        <time>2010-09-19T14:12:42Z</time>
      </trkpt>
      <trkpt lat="45.91501" lon="3.60545">
        <ele>914</ele>
        <time>2010-09-19T14:12:42Z</time>
      </trkpt>
      <trkpt lat="45.91473" lon="3.60617">
        <ele>916</ele>
        <time>2010-09-19T14:12:42Z</time>
      </trkpt>
      <trkpt lat="45.91398" lon="3.60683">
        <ele>915</ele>
        <time>2010-09-19T14:12:42Z</time>
      </trkpt>
      <trkpt lat="45.91331" lon="3.60652">
        <ele>905</ele>
        <time>2010-09-19T14:12:42Z</time>
      </trkpt>
      <trkpt lat="45.91244" lon="3.60529">
        <ele>888</ele>
        <time>2010-09-19T14:12:42Z</time>
      </trkpt>
      <trkpt lat="45.91228" lon="3.60452">
        <ele>885</ele>
        <time>2010-09-19T14:12:42Z</time>
      </trkpt>
      <trkpt lat="45.91243" lon="3.60183">
        <ele>870</ele>
        <time>2010-09-19T14:12:42Z</time>
      </trkpt>
      <trkpt lat="45.91203" lon="3.60013">
        <ele>851</ele>
        <time>2010-09-19T14:12:42Z</time>
      </trkpt>
      <trkpt lat="45.91134" lon="3.59965">
        <ele>843</ele>
        <time>2010-09-19T14:12:42Z</time>
      </trkpt>
      <trkpt lat="45.91093" lon="3.59877">
        <ele>827</ele>
        <time>2010-09-19T14:12:42Z</time>
      </trkpt>
      <trkpt lat="45.91041" lon="3.59847">
        <ele>823</ele>
        <time>2010-09-19T14:12:42Z</time>
      </trkpt>
      <trkpt lat="45.90968" lon="3.60052">
        <ele>802</ele>
        <time>2010-09-19T14:12:42Z</time>
      </trkpt>
      <trkpt lat="45.90947" lon="3.60037">
        <ele>803</ele>
        <time>2010-09-19T14:12:42Z</time>
      </trkpt>
      <trkpt lat="45.90893" lon="3.59862">
        <ele>791</ele>
        <time>2010-09-19T14:12:42Z</time>
      </trkpt>
      <trkpt lat="45.90726" lon="3.59485">
        <ele>770</ele>
        <time>2010-09-19T14:12:42Z</time>
      </trkpt>
      <trkpt lat="45.9071" lon="3.59422">
        <ele>766</ele>
        <time>2010-09-19T14:12:42Z</time>
      </trkpt>
      <trkpt lat="45.90727" lon="3.5937">
        <ele>766</ele>
        <time>2010-09-19T14:12:42Z</time>
      </trkpt>
      <trkpt lat="45.90616" lon="3.5916">
        <ele>766</ele>
        <time>2010-09-19T14:12:42Z</time>
      </trkpt>
      <trkpt lat="45.90489" lon="3.59005">
        <ele>775</ele>
        <time>2010-09-19T14:12:42Z</time>
      </trkpt>
      <trkpt lat="45.90486" lon="3.58938">
        <ele>778</ele>
        <time>2010-09-19T14:12:42Z</time>
      </trkpt>
      <trkpt lat="45.90528" lon="3.58893">
        <ele>784</ele>
        <time>2010-09-19T14:12:42Z</time>
      </trkpt>
      <trkpt lat="45.90631" lon="3.58847">
        <ele>790</ele>
        <time>2010-09-19T14:12:42Z</time>
      </trkpt>
      <trkpt lat="45.90825" lon="3.58642">
        <ele>779</ele>
        <time>2010-09-19T14:12:42Z</time>
      </trkpt>
      <trkpt lat="45.90895" lon="3.58505">
        <ele>780</ele>
        <time>2010-09-19T14:12:42Z</time>
      </trkpt>
      <trkpt lat="45.90943" lon="3.58332">
        <ele>785</ele>
        <time>2010-09-19T14:12:42Z</time>
      </trkpt>
      <trkpt lat="45.90973" lon="3.58325">
        <ele>785</ele>
        <time>2010-09-19T14:12:42Z</time>
      </trkpt>
      <trkpt lat="45.91" lon="3.58268">
        <ele>785</ele>
        <time>2010-09-19T14:12:42Z</time>
      </trkpt>
      <trkpt lat="45.91001" lon="3.58211">
        <ele>784</ele>
        <time>2010-09-19T14:12:42Z</time>
      </trkpt>
      <trkpt lat="45.91022" lon="3.58195">
        <ele>784</ele>
        <time>2010-09-19T14:12:42Z</time>
      </trkpt>
      <trkpt lat="45.91297" lon="3.58183">
        <ele>765</ele>
        <time>2010-09-19T14:12:42Z</time>
      </trkpt>
      <trkpt lat="45.91405" lon="3.58198">
        <ele>760</ele>
        <time>2010-09-19T14:12:42Z</time>
      </trkpt>
      <trkpt lat="45.91594" lon="3.58046">
        <ele>749</ele>
        <time>2010-09-19T14:12:42Z</time>
      </trkpt>
      <trkpt lat="45.91808" lon="3.58003">
        <ele>748</ele>
        <time>2010-09-19T14:12:42Z</time>
      </trkpt>
      <trkpt lat="45.91957" lon="3.57844">
        <ele>765</ele>
        <time>2010-09-19T14:12:42Z</time>
      </trkpt>
      <trkpt lat="45.92012" lon="3.57814">
        <ele>769</ele>
        <time>2010-09-19T14:12:42Z</time>
      </trkpt>
      <trkpt lat="45.92069" lon="3.57741">
        <ele>771</ele>
        <time>2010-09-19T14:12:42Z</time>
      </trkpt>
      <trkpt lat="45.92214" lon="3.57419">
        <ele>763</ele>
        <time>2010-09-19T14:12:42Z</time>
      </trkpt>
      <trkpt lat="45.92254" lon="3.57124">
        <ele>747</ele>
        <time>2010-09-19T14:12:42Z</time>
      </trkpt>
      <trkpt lat="45.92368" lon="3.56905">
        <ele>723</ele>
        <time>2010-09-19T14:12:42Z</time>
      </trkpt>
      <trkpt lat="45.92411" lon="3.56884">
        <ele>724</ele>
        <time>2010-09-19T14:12:42Z</time>
      </trkpt>
      <trkpt lat="45.92378" lon="3.56912">
        <ele>725</ele>
        <time>2010-09-19T14:12:42Z</time>
      </trkpt>
      <trkpt lat="45.92322" lon="3.56867">
        <ele>727</ele>
        <time>2010-09-19T14:12:42Z</time>
      </trkpt>
      <trkpt lat="45.92201" lon="3.56821">
        <ele>728</ele>
        <time>2010-09-19T14:12:42Z</time>
      </trkpt>
      <trkpt lat="45.91955" lon="3.56828">
        <ele>718</ele>
        <time>2010-09-19T14:12:42Z</time>
      </trkpt>
      <trkpt lat="45.91944" lon="3.56804">
        <ele>714</ele>
        <time>2010-09-19T14:12:42Z</time>
      </trkpt>
      <trkpt lat="45.92" lon="3.56668">
        <ele>712</ele>
        <time>2010-09-19T14:12:42Z</time>
      </trkpt>
      <trkpt lat="45.92059" lon="3.56598">
        <ele>709</ele>
        <time>2010-09-19T14:12:42Z</time>
      </trkpt>
      <trkpt lat="45.92204" lon="3.56329">
        <ele>695</ele>
        <time>2010-09-19T14:12:42Z</time>
      </trkpt>
      <trkpt lat="45.92235" lon="3.56166">
        <ele>683</ele>
        <time>2010-09-19T14:12:42Z</time>
      </trkpt>
      <trkpt lat="45.92338" lon="3.56011">
        <ele>672</ele>
        <time>2010-09-19T14:12:42Z</time>
      </trkpt>
      <trkpt lat="45.92364" lon="3.55947">
        <ele>672</ele>
        <time>2010-09-19T14:12:42Z</time>
      </trkpt>
      <trkpt lat="45.92398" lon="3.5563">
        <ele>681</ele>
        <time>2010-09-19T14:12:42Z</time>
      </trkpt>
      <trkpt lat="45.92361" lon="3.55525">
        <ele>683</ele>
        <time>2010-09-19T14:12:42Z</time>
      </trkpt>
      <trkpt lat="45.92372" lon="3.55403">
        <ele>687</ele>
        <time>2010-09-19T14:12:42Z</time>
      </trkpt>
      <trkpt lat="45.92317" lon="3.55261">
        <ele>687</ele>
        <time>2010-09-19T14:12:42Z</time>
      </trkpt>
      <trkpt lat="45.92282" lon="3.55062">
        <ele>691</ele>
        <time>2010-09-19T14:12:42Z</time>
      </trkpt>
      <trkpt lat="45.92252" lon="3.55089">
        <ele>692</ele>
        <time>2010-09-19T14:12:42Z</time>
      </trkpt>
      <trkpt lat="45.92186" lon="3.55092">
        <ele>692</ele>
        <time>2010-09-19T14:12:42Z</time>
      </trkpt>
      <trkpt lat="45.92022" lon="3.55279">
        <ele>663</ele>
        <time>2010-09-19T14:12:42Z</time>
      </trkpt>
      <trkpt lat="45.91949" lon="3.55283">
        <ele>662</ele>
        <time>2010-09-19T14:12:42Z</time>
      </trkpt>
      <trkpt lat="45.92001" lon="3.55014">
        <ele>646</ele>
        <time>2010-09-19T14:12:42Z</time>
      </trkpt>
      <trkpt lat="45.92038" lon="3.54956">
        <ele>640</ele>
        <time>2010-09-19T14:12:42Z</time>
      </trkpt>
      <trkpt lat="45.92031" lon="3.549">
        <ele>635</ele>
        <time>2010-09-19T14:12:42Z</time>
      </trkpt>
      <trkpt lat="45.91997" lon="3.55071">
        <ele>602</ele>
        <time>2010-09-19T14:12:42Z</time>
      </trkpt>
      <trkpt lat="45.92037" lon="3.54881">
        <ele>602</ele>
        <time>2010-09-19T14:12:42Z</time>
      </trkpt>
      <trkpt lat="45.92031" lon="3.54586">
        <ele>590</ele>
        <time>2010-09-19T14:12:42Z</time>
      </trkpt>
      <trkpt lat="45.9205" lon="3.54458">
        <ele>582</ele>
        <time>2010-09-19T14:12:42Z</time>
      </trkpt>
      <trkpt lat="45.92085" lon="3.54371">
        <ele>578</ele>
        <time>2010-09-19T14:12:42Z</time>
      </trkpt>
      <trkpt lat="45.92064" lon="3.54363">
        <ele>578</ele>
        <time>2010-09-19T14:12:42Z</time>
      </trkpt>
      <trkpt lat="45.9209" lon="3.54228">
        <ele>566</ele>
        <time>2010-09-19T14:12:42Z</time>
      </trkpt>
      <trkpt lat="45.92077" lon="3.54118">
        <ele>559</ele>
        <time>2010-09-19T14:12:42Z</time>
      </trkpt>
      <trkpt lat="45.92105" lon="3.54061">
        <ele>553</ele>
        <time>2010-09-19T14:12:42Z</time>
      </trkpt>
      <trkpt lat="45.92109" lon="3.53973">
        <ele>548</ele>
        <time>2010-09-19T14:12:42Z</time>
      </trkpt>
      <trkpt lat="45.91998" lon="3.53737">
        <ele>533</ele>
        <time>2010-09-19T14:12:42Z</time>
      </trkpt>
      <trkpt lat="45.91943" lon="3.53546">
        <ele>520</ele>
        <time>2010-09-19T14:12:42Z</time>
      </trkpt>
      <trkpt lat="45.91896" lon="3.53544">
        <ele>522</ele>
        <time>2010-09-19T14:12:42Z</time>
      </trkpt>
      <trkpt lat="45.91935" lon="3.5355">
        <ele>521</ele>
        <time>2010-09-19T14:12:42Z</time>
      </trkpt>
      <trkpt lat="45.91903" lon="3.53475">
        <ele>512</ele>
        <time>2010-09-19T14:12:42Z</time>
      </trkpt>
      <trkpt lat="45.91975" lon="3.53138">
        <ele>476</ele>
        <time>2010-09-19T14:12:42Z</time>
      </trkpt>
      <trkpt lat="45.9197" lon="3.52885">
        <ele>448</ele>
        <time>2010-09-19T14:12:42Z</time>
      </trkpt>
      <trkpt lat="45.92078" lon="3.52463">
        <ele>419</ele>
        <time>2010-09-19T14:12:42Z</time>
      </trkpt>
      <trkpt lat="45.92092" lon="3.52529">
        <ele>421</ele>
        <time>2010-09-19T14:12:42Z</time>
      </trkpt>
      <trkpt lat="45.92178" lon="3.52568">
        <ele>420</ele>
        <time>2010-09-19T14:12:42Z</time>
      </trkpt>
      <trkpt lat="45.92444" lon="3.52544">
        <ele>414</ele>
        <time>2010-09-19T14:12:42Z</time>
      </trkpt>
      <trkpt lat="45.9264" lon="3.52498">
        <ele>405</ele>
        <time>2010-09-19T14:12:42Z</time>
      </trkpt>
      <trkpt lat="45.92677" lon="3.52413">
        <ele>402</ele>
        <time>2010-09-19T14:12:42Z</time>
      </trkpt>
      <trkpt lat="45.92737" lon="3.5233">
        <ele>391</ele>
        <time>2010-09-19T14:12:42Z</time>
      </trkpt>
      <trkpt lat="45.9293" lon="3.52251">
        <ele>376</ele>
        <time>2010-09-19T14:12:42Z</time>
      </trkpt>
      <trkpt lat="45.93076" lon="3.52126">
        <ele>355</ele>
        <time>2010-09-19T14:12:42Z</time>
      </trkpt>
      <trkpt lat="45.93106" lon="3.52084">
        <ele>355</ele>
        <time>2010-09-19T14:12:42Z</time>
      </trkpt>
      <trkpt lat="45.93093" lon="3.5217">
        <ele>351</ele>
        <time>2010-09-19T14:12:42Z</time>
      </trkpt>
      <trkpt lat="45.93114" lon="3.52235">
        <ele>352</ele>
        <time>2010-09-19T14:12:42Z</time>
      </trkpt>
      <trkpt lat="45.93222" lon="3.52319">
        <ele>363</ele>
        <time>2010-09-19T14:12:42Z</time>
      </trkpt>
      <trkpt lat="45.93249" lon="3.52363">
        <ele>365</ele>
        <time>2010-09-19T14:12:42Z</time>
      </trkpt>
      <trkpt lat="45.93421" lon="3.52334">
        <ele>375</ele>
        <time>2010-09-19T14:12:42Z</time>
      </trkpt>
      <trkpt lat="45.93454" lon="3.5232">
        <ele>370</ele>
        <time>2010-09-19T14:12:42Z</time>
      </trkpt>
      <trkpt lat="45.93567" lon="3.52176">
        <ele>361</ele>
        <time>2010-09-19T14:12:42Z</time>
      </trkpt>
      <trkpt lat="45.93633" lon="3.51999">
        <ele>354</ele>
        <time>2010-09-19T14:12:42Z</time>
      </trkpt>
      <trkpt lat="45.93628" lon="3.5204">
        <ele>358</ele>
        <time>2010-09-19T14:12:42Z</time>
      </trkpt>
      <trkpt lat="45.93643" lon="3.52044">
        <ele>359</ele>
        <time>2010-09-19T14:12:42Z</time>
      </trkpt>
      <trkpt lat="45.937" lon="3.51924">
        <ele>352</ele>
        <time>2010-09-19T14:12:42Z</time>
      </trkpt>
      <trkpt lat="45.93833" lon="3.51873">
        <ele>333</ele>
        <time>2010-09-19T14:12:42Z</time>
      </trkpt>
      <trkpt lat="45.9389" lon="3.51796">
        <ele>324</ele>
        <time>2010-09-19T14:12:42Z</time>
      </trkpt>
      <trkpt lat="45.93983" lon="3.51772">
        <ele>317</ele>
        <time>2010-09-19T14:12:42Z</time>
      </trkpt>
      <trkpt lat="45.93951" lon="3.51747">
        <ele>317</ele>
        <time>2010-09-19T14:12:42Z</time>
      </trkpt>
      <trkpt lat="45.93796" lon="3.51906">
        <ele>318</ele>
        <time>2010-09-19T14:12:42Z</time>
      </trkpt>
      <trkpt lat="45.93983" lon="3.51775">
        <ele>318</ele>
        <time>2010-09-19T14:12:42Z</time>
      </trkpt>
    </trkseg>
  </trk>
</gpx>